owner,sensor,date,latitude,longitude,vertical_datum,wind_speed,wind_to_direction,wind_speed_of_gust,qcFlag 
NDBC,ioos:station:NOAA.NDBC:PTAT2:1,2014-03-01T00:00:00Z,27.8260,-97.0510,14.9,7.7,140.0,8.8,'1111122,1111122,1111122' 
NDBC,ioos:station:NOAA.NDBC:PTAT2:1,2014-03-01T01:00:00Z,27.8260,-97.0510,14.9,9.3,150.0,10.3,'1111122,1111122,1111122' 
NDBC,ioos:station:NOAA.NDBC:PTAT2:1,2014-03-01T02:00:00Z,27.8260,-97.0510,14.9,10.8,150.0,11.3,'1111122,1111122,1111122' 
NDBC,ioos:station:NOAA.NDBC:PTAT2:1,2014-03-01T03:00:00Z,27.8260,-97.0510,14.9,10.8,160.0,11.3,'1111122,1111122,1111122' 
NDBC,ioos:station:NOAA.NDBC:PTAT2:1,2014-03-01T04:00:00Z,27.8260,-97.0510,14.9,8.8,170.0,9.3,'1111122,1111122,1111122' 
NDBC,ioos:station:NOAA.NDBC:PTAT2:1,2014-03-01T05:00:00Z,27.8260,-97.0510,14.9,6.7,160.0,7.2,'1111122,1111122,1111122' 
NDBC,ioos:station:NOAA.NDBC:PTAT2:1,2014-03-01T06:00:00Z,27.8260,-97.0510,14.9,5.7,180.0,6.2,'1111122,1111122,1111122' 
NDBC,ioos:station:NOAA.NDBC:PTAT2:1,2014-03-01T07:00:00Z,27.8260,-97.0510,14.9,6.2,180.0,6.7,'1111122,1111122,1111122' 
NDBC,ioos:station:NOAA.NDBC:PTAT2:1,2014-03-01T08:00:00Z,27.8260,-97.0510,14.9,6.2,190.0,6.2,'1111122,1111122,1111122' 
NDBC,ioos:station:NOAA.NDBC:PTAT2:1,2014-03-01T09:00:00Z,27.8260,-97.0510,14.9,5.7,170.0,5.7,'1111122,1111122,1111122' 
NDBC,ioos:station:NOAA.NDBC:PTAT2:1,2014-03-01T10:00:00Z,27.8260,-97.0510,14.9,4.6,160.0,4.6,'1111122,1111122,1111122' 
NDBC,ioos:station:NOAA.NDBC:PTAT2:1,2014-03-01T11:00:00Z,27.8260,-97.0510,14.9,4.1,160.0,4.1,'1111122,1111122,1111122' 
NDBC,ioos:station:NOAA.NDBC:PTAT2:1,2014-03-01T12:00:00Z,27.8260,-97.0510,14.9,4.1,150.0,4.1,'1111122,1111122,1111122' 
NDBC,ioos:station:NOAA.NDBC:PTAT2:1,2014-03-01T13:00:00Z,27.8260,-97.0510,14.9,2.6,170.0,3.1,'1111122,1111122,1111122' 
NDBC,ioos:station:NOAA.NDBC:PTAT2:1,2014-03-01T14:00:00Z,27.8260,-97.0510,14.9,4.1,140.0,4.6,'1111122,1111122,1111122' 
NDBC,ioos:station:NOAA.NDBC:PTAT2:1,2014-03-01T15:00:00Z,27.8260,-97.0510,14.9,3.6,120.0,4.1,'1111122,1111122,1111122' 
NDBC,ioos:station:NOAA.NDBC:PTAT2:1,2014-03-01T16:00:00Z,27.8260,-97.0510,14.9,3.6,100.0,4.1,'1111122,1111122,1111122' 
NDBC,ioos:station:NOAA.NDBC:PTAT2:1,2014-03-01T17:00:00Z,27.8260,-97.0510,14.9,5.1,110.0,5.7,'1111122,1111122,1111122' 
NDBC,ioos:station:NOAA.NDBC:PTAT2:1,2014-03-01T18:00:00Z,27.8260,-97.0510,14.9,5.7,110.0,6.7,'1111122,1111122,1111122' 
NDBC,ioos:station:NOAA.NDBC:PTAT2:1,2014-03-01T19:00:00Z,27.8260,-97.0510,14.9,5.1,110.0,5.7,'1111122,1111122,1111122' 
NDBC,ioos:station:NOAA.NDBC:PTAT2:1,2014-03-01T20:00:00Z,27.8260,-97.0510,14.9,5.1,110.0,5.1,'1111122,1111122,1111122' 
NDBC,ioos:station:NOAA.NDBC:PTAT2:1,2014-03-01T21:00:00Z,27.8260,-97.0510,14.9,6.2,110.0,6.7,'1111122,1111122,1111122' 
NDBC,ioos:station:NOAA.NDBC:PTAT2:1,2014-03-01T22:00:00Z,27.8260,-97.0510,14.9,6.2,120.0,6.7,'1111122,1111122,1111122' 
NDBC,ioos:station:NOAA.NDBC:PTAT2:1,2014-03-01T23:00:00Z,27.8260,-97.0510,14.9,6.7,120.0,6.7,'1111122,1111122,1111122' 
NDBC,ioos:station:NOAA.NDBC:PTAT2:1,2014-03-02T00:00:00Z,27.8260,-97.0510,14.9,7.2,120.0,7.7,'1111122,1111122,1111122' 
NDBC,ioos:station:NOAA.NDBC:PTAT2:1,2014-03-02T01:00:00Z,27.8260,-97.0510,14.9,7.2,120.0,7.7,'1111122,1111122,1111122' 
NDBC,ioos:station:NOAA.NDBC:PTAT2:1,2014-03-02T02:00:00Z,27.8260,-97.0510,14.9,7.2,110.0,7.2,'1111122,1111122,1111122' 
NDBC,ioos:station:NOAA.NDBC:PTAT2:1,2014-03-02T03:00:00Z,27.8260,-97.0510,14.9,6.7,110.0,7.2,'1111122,1111122,1111122' 
NDBC,ioos:station:NOAA.NDBC:PTAT2:1,2014-03-02T04:00:00Z,27.8260,-97.0510,14.9,6.7,120.0,7.2,'1111122,1111122,1111122' 
NDBC,ioos:station:NOAA.NDBC:PTAT2:1,2014-03-02T05:00:00Z,27.8260,-97.0510,14.9,5.7,120.0,6.2,'1111122,1111122,1111122' 
NDBC,ioos:station:NOAA.NDBC:PTAT2:1,2014-03-02T06:00:00Z,27.8260,-97.0510,14.9,6.2,120.0,6.2,'1111122,1111122,1111122' 
NDBC,ioos:station:NOAA.NDBC:PTAT2:1,2014-03-02T07:00:00Z,27.8260,-97.0510,14.9,6.7,130.0,7.2,'1111122,1111122,1111122' 
NDBC,ioos:station:NOAA.NDBC:PTAT2:1,2014-03-02T08:00:00Z,27.8260,-97.0510,14.9,7.7,130.0,8.2,'1111122,1111122,1111122' 
NDBC,ioos:station:NOAA.NDBC:PTAT2:1,2014-03-02T09:00:00Z,27.8260,-97.0510,14.9,7.7,130.0,8.8,'1111122,1111122,1111122' 
NDBC,ioos:station:NOAA.NDBC:PTAT2:1,2014-03-02T10:00:00Z,27.8260,-97.0510,14.9,6.2,130.0,6.2,'1111122,1111122,1111122' 
NDBC,ioos:station:NOAA.NDBC:PTAT2:1,2014-03-02T11:00:00Z,27.8260,-97.0510,14.9,5.7,130.0,6.2,'1111122,1111122,1111122' 
NDBC,ioos:station:NOAA.NDBC:PTAT2:1,2014-03-02T12:00:00Z,27.8260,-97.0510,14.9,5.7,120.0,6.2,'1111122,1111122,1111122' 
NDBC,ioos:station:NOAA.NDBC:PTAT2:1,2014-03-02T13:00:00Z,27.8260,-97.0510,14.9,5.1,130.0,5.7,'1111122,1111122,1111122' 
NDBC,ioos:station:NOAA.NDBC:PTAT2:1,2014-03-02T14:00:00Z,27.8260,-97.0510,14.9,6.2,130.0,6.7,'1111122,1111122,1111122' 
NDBC,ioos:station:NOAA.NDBC:PTAT2:1,2014-03-02T15:00:00Z,27.8260,-97.0510,14.9,7.7,130.0,8.2,'1111122,1111122,1111122' 
NDBC,ioos:station:NOAA.NDBC:PTAT2:1,2014-03-02T16:00:00Z,27.8260,-97.0510,14.9,7.7,130.0,8.2,'1111122,1111122,1111122' 
NDBC,ioos:station:NOAA.NDBC:PTAT2:1,2014-03-02T17:00:00Z,27.8260,-97.0510,14.9,6.7,120.0,7.2,'1111122,1111122,1111122' 
NDBC,ioos:station:NOAA.NDBC:PTAT2:1,2014-03-02T18:00:00Z,27.8260,-97.0510,14.9,7.7,120.0,8.2,'1111122,1111122,1111122' 
NDBC,ioos:station:NOAA.NDBC:PTAT2:1,2014-03-02T19:00:00Z,27.8260,-97.0510,14.9,5.7,120.0,5.7,'1111122,1111122,1111122' 
NDBC,ioos:station:NOAA.NDBC:PTAT2:1,2014-03-02T20:00:00Z,27.8260,-97.0510,14.9,6.2,130.0,6.2,'1111122,1111122,1111122' 
NDBC,ioos:station:NOAA.NDBC:PTAT2:1,2014-03-02T21:00:00Z,27.8260,-97.0510,14.9,7.7,130.0,8.2,'1111122,1111122,1111122' 
NDBC,ioos:station:NOAA.NDBC:PTAT2:1,2014-03-02T22:00:00Z,27.8260,-97.0510,14.9,8.8,130.0,9.8,'1111122,1111122,1111122' 
NDBC,ioos:station:NOAA.NDBC:PTAT2:1,2014-03-02T23:00:00Z,27.8260,-97.0510,14.9,7.2,120.0,7.7,'1111122,1111122,1111122' 
NDBC,ioos:station:NOAA.NDBC:PTAT2:1,2014-03-03T00:00:00Z,27.8260,-97.0510,14.9,4.6,140.0,5.1,'1111122,1111122,1111122' 
NDBC,ioos:station:NOAA.NDBC:PTAT2:1,2014-03-03T01:00:00Z,27.8260,-97.0510,14.9,3.1,70.0,4.1,'1111122,1111122,1111122' 
NDBC,ioos:station:NOAA.NDBC:PTAT2:1,2014-03-03T02:00:00Z,27.8260,-97.0510,14.9,12.4,360.0,15.4,'1111122,1111122,1111122' 
NDBC,ioos:station:NOAA.NDBC:PTAT2:1,2014-03-03T03:00:00Z,27.8260,-97.0510,14.9,13.9,360.0,16.0,'1111122,1111122,1111122' 
NDBC,ioos:station:NOAA.NDBC:PTAT2:1,2014-03-03T04:00:00Z,27.8260,-97.0510,14.9,12.4,360.0,13.9,'1111122,1111122,1111122' 
NDBC,ioos:station:NOAA.NDBC:PTAT2:1,2014-03-03T05:00:00Z,27.8260,-97.0510,14.9,12.9,360.0,14.9,'1111122,1111122,1111122' 
NDBC,ioos:station:NOAA.NDBC:PTAT2:1,2014-03-03T06:00:00Z,27.8260,-97.0510,14.9,13.4,360.0,15.4,'1111122,1111122,1111122' 
NDBC,ioos:station:NOAA.NDBC:PTAT2:1,2014-03-03T07:00:00Z,27.8260,-97.0510,14.9,11.8,360.0,13.4,'1111122,1111122,1111122' 
NDBC,ioos:station:NOAA.NDBC:PTAT2:1,2014-03-03T08:00:00Z,27.8260,-97.0510,14.9,9.8,360.0,11.3,'1111122,1111122,1111122' 
NDBC,ioos:station:NOAA.NDBC:PTAT2:1,2014-03-03T09:00:00Z,27.8260,-97.0510,14.9,9.3,350.0,11.8,'1111122,1111122,1111122' 
NDBC,ioos:station:NOAA.NDBC:PTAT2:1,2014-03-03T10:00:00Z,27.8260,-97.0510,14.9,11.3,350.0,13.4,'1111122,1111122,1111122' 
NDBC,ioos:station:NOAA.NDBC:PTAT2:1,2014-03-03T11:00:00Z,27.8260,-97.0510,14.9,10.8,350.0,12.4,'1111122,1111122,1111122' 
NDBC,ioos:station:NOAA.NDBC:PTAT2:1,2014-03-03T12:00:00Z,27.8260,-97.0510,14.9,9.8,350.0,11.8,'1111122,1111122,1111122' 
NDBC,ioos:station:NOAA.NDBC:PTAT2:1,2014-03-03T13:00:00Z,27.8260,-97.0510,14.9,12.9,350.0,14.9,'1111122,1111122,1111122' 
NDBC,ioos:station:NOAA.NDBC:PTAT2:1,2014-03-03T14:00:00Z,27.8260,-97.0510,14.9,10.8,350.0,12.9,'1111122,1111122,1111122' 
NDBC,ioos:station:NOAA.NDBC:PTAT2:1,2014-03-03T15:00:00Z,27.8260,-97.0510,14.9,10.8,350.0,12.9,'1111122,1111122,1111122' 
NDBC,ioos:station:NOAA.NDBC:PTAT2:1,2014-03-03T16:00:00Z,27.8260,-97.0510,14.9,9.8,360.0,11.3,'1111122,1111122,1111122' 
NDBC,ioos:station:NOAA.NDBC:PTAT2:1,2014-03-03T17:00:00Z,27.8260,-97.0510,14.9,11.3,360.0,12.9,'1111122,1111122,1111122' 
NDBC,ioos:station:NOAA.NDBC:PTAT2:1,2014-03-03T18:00:00Z,27.8260,-97.0510,14.9,9.3,350.0,10.8,'1111122,1111122,1111122' 
NDBC,ioos:station:NOAA.NDBC:PTAT2:1,2014-03-03T19:00:00Z,27.8260,-97.0510,14.9,7.7,360.0,8.8,'1111122,1111122,1111122' 
NDBC,ioos:station:NOAA.NDBC:PTAT2:1,2014-03-03T20:00:00Z,27.8260,-97.0510,14.9,7.2,360.0,8.8,'1111122,1111122,1111122' 
NDBC,ioos:station:NOAA.NDBC:PTAT2:1,2014-03-03T21:00:00Z,27.8260,-97.0510,14.9,8.2,360.0,10.3,'1111122,1111122,1111122' 
NDBC,ioos:station:NOAA.NDBC:PTAT2:1,2014-03-03T22:00:00Z,27.8260,-97.0510,14.9,8.2,340.0,10.3,'1111122,1111122,1111122' 
NDBC,ioos:station:NOAA.NDBC:PTAT2:1,2014-03-03T23:00:00Z,27.8260,-97.0510,14.9,6.2,360.0,7.2,'1111122,1111122,1111122' 
NDBC,ioos:station:NOAA.NDBC:PTAT2:1,2014-03-04T00:00:00Z,27.8260,-97.0510,14.9,6.2,360.0,6.7,'1111122,1111122,1111122' 
NDBC,ioos:station:NOAA.NDBC:PTAT2:1,2014-03-04T01:00:00Z,27.8260,-97.0510,14.9,7.2,360.0,7.7,'1111122,1111122,1111122' 
NDBC,ioos:station:NOAA.NDBC:PTAT2:1,2014-03-04T02:00:00Z,27.8260,-97.0510,14.9,7.2,360.0,8.8,'1111122,1111122,1111122' 
NDBC,ioos:station:NOAA.NDBC:PTAT2:1,2014-03-04T03:00:00Z,27.8260,-97.0510,14.9,6.7,360.0,8.2,'1111122,1111122,1111122' 
NDBC,ioos:station:NOAA.NDBC:PTAT2:1,2014-03-04T04:00:00Z,27.8260,-97.0510,14.9,8.2,10.0,10.3,'1111122,1111122,1111122' 
NDBC,ioos:station:NOAA.NDBC:PTAT2:1,2014-03-04T05:00:00Z,27.8260,-97.0510,14.9,7.7,10.0,8.2,'1111122,1111122,1111122' 
NDBC,ioos:station:NOAA.NDBC:PTAT2:1,2014-03-04T06:00:00Z,27.8260,-97.0510,14.9,5.1,360.0,6.2,'1111122,1111122,1111122' 
NDBC,ioos:station:NOAA.NDBC:PTAT2:1,2014-03-04T07:00:00Z,27.8260,-97.0510,14.9,5.7,360.0,6.7,'1111122,1111122,1111122' 
NDBC,ioos:station:NOAA.NDBC:PTAT2:1,2014-03-04T08:00:00Z,27.8260,-97.0510,14.9,6.2,360.0,7.2,'1111122,1111122,1111122' 
NDBC,ioos:station:NOAA.NDBC:PTAT2:1,2014-03-04T09:00:00Z,27.8260,-97.0510,14.9,7.7,320.0,9.3,'1111122,1111122,1111122' 
NDBC,ioos:station:NOAA.NDBC:PTAT2:1,2014-03-04T10:00:00Z,27.8260,-97.0510,14.9,8.8,40.0,9.8,'1111122,1111122,1111122' 
NDBC,ioos:station:NOAA.NDBC:PTAT2:1,2014-03-04T11:00:00Z,27.8260,-97.0510,14.9,5.7,20.0,6.7,'1111122,1111122,1111122' 
NDBC,ioos:station:NOAA.NDBC:PTAT2:1,2014-03-04T12:00:00Z,27.8260,-97.0510,14.9,8.8,310.0,10.3,'1111122,1111122,1111122' 
NDBC,ioos:station:NOAA.NDBC:PTAT2:1,2014-03-04T13:00:00Z,27.8260,-97.0510,14.9,8.2,330.0,10.3,'1111122,1111122,1111122' 
NDBC,ioos:station:NOAA.NDBC:PTAT2:1,2014-03-04T14:00:00Z,27.8260,-97.0510,14.9,7.2,360.0,8.8,'1111122,1111122,1111122' 
NDBC,ioos:station:NOAA.NDBC:PTAT2:1,2014-03-04T15:00:00Z,27.8260,-97.0510,14.9,7.7,360.0,8.8,'1111122,1111122,1111122' 
NDBC,ioos:station:NOAA.NDBC:PTAT2:1,2014-03-04T16:00:00Z,27.8260,-97.0510,14.9,6.7,360.0,7.7,'1111122,1111122,1111122' 
NDBC,ioos:station:NOAA.NDBC:PTAT2:1,2014-03-04T17:00:00Z,27.8260,-97.0510,14.9,6.7,360.0,7.7,'1111122,1111122,1111122' 
NDBC,ioos:station:NOAA.NDBC:PTAT2:1,2014-03-04T18:00:00Z,27.8260,-97.0510,14.9,6.2,360.0,7.2,'1111122,1111122,1111122' 
NDBC,ioos:station:NOAA.NDBC:PTAT2:1,2014-03-04T19:00:00Z,27.8260,-97.0510,14.9,5.1,350.0,6.7,'1111122,1111122,1111122' 
NDBC,ioos:station:NOAA.NDBC:PTAT2:1,2014-03-04T20:00:00Z,27.8260,-97.0510,14.9,6.7,10.0,7.2,'1111122,1111122,1111122' 
NDBC,ioos:station:NOAA.NDBC:PTAT2:1,2014-03-04T21:00:00Z,27.8260,-97.0510,14.9,6.2,360.0,6.7,'1111122,1111122,1111122' 
NDBC,ioos:station:NOAA.NDBC:PTAT2:1,2014-03-04T22:00:00Z,27.8260,-97.0510,14.9,6.2,360.0,6.7,'1111122,1111122,1111122' 
NDBC,ioos:station:NOAA.NDBC:PTAT2:1,2014-03-04T23:00:00Z,27.8260,-97.0510,14.9,6.2,10.0,7.2,'1111122,1111122,1111122' 
NDBC,ioos:station:NOAA.NDBC:PTAT2:1,2014-03-05T00:00:00Z,27.8260,-97.0510,14.9,5.7,10.0,6.7,'1111122,1111122,1111122' 
NDBC,ioos:station:NOAA.NDBC:PTAT2:1,2014-03-05T01:00:00Z,27.8260,-97.0510,14.9,5.1,360.0,5.7,'1111122,1111122,1111122' 
NDBC,ioos:station:NOAA.NDBC:PTAT2:1,2014-03-06T15:00:00Z,27.8260,-97.0510,14.9,5.7,330.0,7.2,'1111122,1111122,1111122' 
NDBC,ioos:station:NOAA.NDBC:PTAT2:1,2014-03-06T16:00:00Z,27.8260,-97.0510,14.9,4.6,320.0,5.7,'1111122,1111122,1111122' 
NDBC,ioos:station:NOAA.NDBC:PTAT2:1,2014-03-06T17:00:00Z,27.8260,-97.0510,14.9,4.1,330.0,6.2,'1111122,1111122,1111122' 
NDBC,ioos:station:NOAA.NDBC:PTAT2:1,2014-03-06T18:00:00Z,27.8260,-97.0510,14.9,3.1,350.0,4.6,'1111122,1111122,1111122' 
NDBC,ioos:station:NOAA.NDBC:PTAT2:1,2014-03-06T19:00:00Z,27.8260,-97.0510,14.9,3.1,360.0,4.1,'1111122,1111122,1111122' 
NDBC,ioos:station:NOAA.NDBC:PTAT2:1,2014-03-06T20:00:00Z,27.8260,-97.0510,14.9,4.6,90.0,5.1,'1111122,1111122,1111122' 
NDBC,ioos:station:NOAA.NDBC:PTAT2:1,2014-03-06T21:00:00Z,27.8260,-97.0510,14.9,4.1,120.0,4.1,'1111122,1111122,1111122' 
NDBC,ioos:station:NOAA.NDBC:PTAT2:1,2014-03-06T22:00:00Z,27.8260,-97.0510,14.9,4.1,140.0,4.1,'1111122,1111122,1111122' 
NDBC,ioos:station:NOAA.NDBC:PTAT2:1,2014-03-06T23:00:00Z,27.8260,-97.0510,14.9,3.6,130.0,4.1,'1111122,1111122,1111122' 
NDBC,ioos:station:NOAA.NDBC:PTAT2:1,2014-03-07T00:00:00Z,27.8260,-97.0510,14.9,2.1,110.0,2.6,'1111122,1111122,1111122' 
NDBC,ioos:station:NOAA.NDBC:PTAT2:1,2014-03-07T01:00:00Z,27.8260,-97.0510,14.9,2.6,110.0,3.1,'1111122,1111122,1111122' 
NDBC,ioos:station:NOAA.NDBC:PTAT2:1,2014-03-07T02:00:00Z,27.8260,-97.0510,14.9,2.6,140.0,3.1,'1111122,1111122,1111122' 
NDBC,ioos:station:NOAA.NDBC:PTAT2:1,2014-03-07T03:00:00Z,27.8260,-97.0510,14.9,0.5,150.0,1.0,'1111122,1111122,1111122' 
NDBC,ioos:station:NOAA.NDBC:PTAT2:1,2014-03-07T04:00:00Z,27.8260,-97.0510,14.9,2.1,110.0,2.1,'1111122,1111122,1111122' 
NDBC,ioos:station:NOAA.NDBC:PTAT2:1,2014-03-07T05:00:00Z,27.8260,-97.0510,14.9,2.6,90.0,2.6,'1111122,1111122,1111122' 
NDBC,ioos:station:NOAA.NDBC:PTAT2:1,2014-03-07T06:00:00Z,27.8260,-97.0510,14.9,4.1,70.0,4.6,'1111122,1111122,1111122' 
NDBC,ioos:station:NOAA.NDBC:PTAT2:1,2014-03-07T07:00:00Z,27.8260,-97.0510,14.9,3.6,70.0,3.6,'1111122,1111122,1111122' 
NDBC,ioos:station:NOAA.NDBC:PTAT2:1,2014-03-07T08:00:00Z,27.8260,-97.0510,14.9,3.6,80.0,4.1,'1111122,1111122,1111122' 
NDBC,ioos:station:NOAA.NDBC:PTAT2:1,2014-03-07T09:00:00Z,27.8260,-97.0510,14.9,5.1,70.0,5.7,'1111122,1111122,1111122' 
NDBC,ioos:station:NOAA.NDBC:PTAT2:1,2014-03-07T10:00:00Z,27.8260,-97.0510,14.9,4.6,80.0,5.7,'1111122,1111122,1111122' 
NDBC,ioos:station:NOAA.NDBC:PTAT2:1,2014-03-07T11:00:00Z,27.8260,-97.0510,14.9,4.1,100.0,4.1,'1111122,1111122,1111122' 
NDBC,ioos:station:NOAA.NDBC:PTAT2:1,2014-03-07T12:00:00Z,27.8260,-97.0510,14.9,3.6,90.0,4.1,'1111122,1111122,1111122' 
NDBC,ioos:station:NOAA.NDBC:PTAT2:1,2014-03-07T13:00:00Z,27.8260,-97.0510,14.9,3.6,100.0,4.1,'1111122,1111122,1111122' 
NDBC,ioos:station:NOAA.NDBC:PTAT2:1,2014-03-07T14:00:00Z,27.8260,-97.0510,14.9,2.6,100.0,2.6,'1111122,1111122,1111122' 
NDBC,ioos:station:NOAA.NDBC:PTAT2:1,2014-03-07T15:00:00Z,27.8260,-97.0510,14.9,2.6,90.0,2.6,'1111122,1111122,1111122' 
NDBC,ioos:station:NOAA.NDBC:PTAT2:1,2014-03-07T16:00:00Z,27.8260,-97.0510,14.9,2.6,100.0,2.6,'1111122,1111122,1111122' 
NDBC,ioos:station:NOAA.NDBC:PTAT2:1,2014-03-07T17:00:00Z,27.8260,-97.0510,14.9,2.6,80.0,3.1,'1111122,1111122,1111122' 
NDBC,ioos:station:NOAA.NDBC:PTAT2:1,2014-03-07T18:00:00Z,27.8260,-97.0510,14.9,3.1,90.0,3.1,'1111122,1111122,1111122' 
NDBC,ioos:station:NOAA.NDBC:PTAT2:1,2014-03-07T19:00:00Z,27.8260,-97.0510,14.9,3.1,100.0,3.1,'1111122,1111122,1111122' 
NDBC,ioos:station:NOAA.NDBC:PTAT2:1,2014-03-07T20:00:00Z,27.8260,-97.0510,14.9,3.6,110.0,4.1,'1111122,1111122,1111122' 
NDBC,ioos:station:NOAA.NDBC:PTAT2:1,2014-03-07T21:00:00Z,27.8260,-97.0510,14.9,4.1,120.0,4.1,'1111122,1111122,1111122' 
NDBC,ioos:station:NOAA.NDBC:PTAT2:1,2014-03-07T22:00:00Z,27.8260,-97.0510,14.9,5.1,130.0,5.1,'1111122,1111122,1111122' 
NDBC,ioos:station:NOAA.NDBC:PTAT2:1,2014-03-07T23:00:00Z,27.8260,-97.0510,14.9,3.6,130.0,3.6,'1111122,1111122,1111122' 
NDBC,ioos:station:NOAA.NDBC:PTAT2:1,2014-03-08T00:00:00Z,27.8260,-97.0510,14.9,4.1,130.0,4.1,'1111122,1111122,1111122' 
NDBC,ioos:station:NOAA.NDBC:PTAT2:1,2014-03-08T01:00:00Z,27.8260,-97.0510,14.9,4.6,140.0,5.1,'1111122,1111122,1111122' 
NDBC,ioos:station:NOAA.NDBC:PTAT2:1,2014-03-08T02:00:00Z,27.8260,-97.0510,14.9,4.6,130.0,5.1,'1111122,1111122,1111122' 
NDBC,ioos:station:NOAA.NDBC:PTAT2:1,2014-03-08T03:00:00Z,27.8260,-97.0510,14.9,4.6,140.0,4.6,'1111122,1111122,1111122' 
NDBC,ioos:station:NOAA.NDBC:PTAT2:1,2014-03-08T04:00:00Z,27.8260,-97.0510,14.9,5.7,130.0,6.7,'1111122,1111122,1111122' 
NDBC,ioos:station:NOAA.NDBC:PTAT2:1,2014-03-08T05:00:00Z,27.8260,-97.0510,14.9,5.1,130.0,5.7,'1111122,1111122,1111122' 
NDBC,ioos:station:NOAA.NDBC:PTAT2:1,2014-03-08T06:00:00Z,27.8260,-97.0510,14.9,4.1,130.0,4.1,'1111122,1111122,1111122' 
NDBC,ioos:station:NOAA.NDBC:PTAT2:1,2014-03-08T07:00:00Z,27.8260,-97.0510,14.9,3.1,130.0,3.1,'1111122,1111122,1111122' 
NDBC,ioos:station:NOAA.NDBC:PTAT2:1,2014-03-08T08:00:00Z,27.8260,-97.0510,14.9,4.6,110.0,5.1,'1111122,1111122,1111122' 
NDBC,ioos:station:NOAA.NDBC:PTAT2:1,2014-03-08T09:00:00Z,27.8260,-97.0510,14.9,5.1,120.0,5.1,'1111122,1111122,1111122' 
NDBC,ioos:station:NOAA.NDBC:PTAT2:1,2014-03-08T10:00:00Z,27.8260,-97.0510,14.9,5.7,130.0,5.7,'1111122,1111122,1111122' 
NDBC,ioos:station:NOAA.NDBC:PTAT2:1,2014-03-08T11:00:00Z,27.8260,-97.0510,14.9,4.6,120.0,5.1,'1111122,1111122,1111122' 
NDBC,ioos:station:NOAA.NDBC:PTAT2:1,2014-03-08T12:00:00Z,27.8260,-97.0510,14.9,3.6,100.0,3.6,'1111122,1111122,1111122' 
NDBC,ioos:station:NOAA.NDBC:PTAT2:1,2014-03-08T13:00:00Z,27.8260,-97.0510,14.9,4.1,100.0,4.1,'1111122,1111122,1111122' 
NDBC,ioos:station:NOAA.NDBC:PTAT2:1,2014-03-08T14:00:00Z,27.8260,-97.0510,14.9,4.6,80.0,4.6,'1111122,1111122,1111122' 
NDBC,ioos:station:NOAA.NDBC:PTAT2:1,2014-03-08T15:00:00Z,27.8260,-97.0510,14.9,5.1,110.0,5.7,'1111122,1111122,1111122' 
NDBC,ioos:station:NOAA.NDBC:PTAT2:1,2014-03-08T16:00:00Z,27.8260,-97.0510,14.9,4.6,90.0,4.6,'1111122,1111122,1111122' 
NDBC,ioos:station:NOAA.NDBC:PTAT2:1,2014-03-08T17:00:00Z,27.8260,-97.0510,14.9,4.1,80.0,4.6,'1111122,1111122,1111122' 
NDBC,ioos:station:NOAA.NDBC:PTAT2:1,2014-03-08T18:00:00Z,27.8260,-97.0510,14.9,5.1,80.0,5.7,'1111122,1111122,1111122' 
NDBC,ioos:station:NOAA.NDBC:PTAT2:1,2014-03-08T19:00:00Z,27.8260,-97.0510,14.9,4.6,60.0,5.1,'1111122,1111122,1111122' 
NDBC,ioos:station:NOAA.NDBC:PTAT2:1,2014-03-08T20:00:00Z,27.8260,-97.0510,14.9,6.7,70.0,6.7,'1111122,1111122,1111122' 
NDBC,ioos:station:NOAA.NDBC:PTAT2:1,2014-03-08T21:00:00Z,27.8260,-97.0510,14.9,6.2,80.0,6.2,'1111122,1111122,1111122' 
NDBC,ioos:station:NOAA.NDBC:PTAT2:1,2014-03-08T22:00:00Z,27.8260,-97.0510,14.9,6.2,80.0,6.7,'1111122,1111122,1111122' 
NDBC,ioos:station:NOAA.NDBC:PTAT2:1,2014-03-08T23:00:00Z,27.8260,-97.0510,14.9,5.1,70.0,5.1,'1111122,1111122,1111122' 
NDBC,ioos:station:NOAA.NDBC:PTAT2:1,2014-03-09T00:00:00Z,27.8260,-97.0510,14.9,4.6,80.0,4.6,'1111122,1111122,1111122' 
NDBC,ioos:station:NOAA.NDBC:PTAT2:1,2014-03-09T01:00:00Z,27.8260,-97.0510,14.9,7.7,90.0,8.2,'1111122,1111122,1111122' 
NDBC,ioos:station:NOAA.NDBC:PTAT2:1,2014-03-09T02:00:00Z,27.8260,-97.0510,14.9,6.7,120.0,6.7,'1111122,1111122,1111122' 
NDBC,ioos:station:NOAA.NDBC:PTAT2:1,2014-03-09T03:00:00Z,27.8260,-97.0510,14.9,4.6,70.0,4.6,'1111122,1111122,1111122' 
NDBC,ioos:station:NOAA.NDBC:PTAT2:1,2014-03-09T04:00:00Z,27.8260,-97.0510,14.9,4.6,360.0,5.7,'1111122,1111122,1111122' 
NDBC,ioos:station:NOAA.NDBC:PTAT2:1,2014-03-09T05:00:00Z,27.8260,-97.0510,14.9,9.3,360.0,11.8,'1111122,1111122,1111122' 
NDBC,ioos:station:NOAA.NDBC:PTAT2:1,2014-03-09T06:00:00Z,27.8260,-97.0510,14.9,11.3,360.0,13.9,'1111122,1111122,1111122' 
NDBC,ioos:station:NOAA.NDBC:PTAT2:1,2014-03-09T07:00:00Z,27.8260,-97.0510,14.9,11.3,360.0,13.4,'1111122,1111122,1111122' 
NDBC,ioos:station:NOAA.NDBC:PTAT2:1,2014-03-09T08:00:00Z,27.8260,-97.0510,14.9,12.4,360.0,13.9,'1111122,1111122,1111122' 
NDBC,ioos:station:NOAA.NDBC:PTAT2:1,2014-03-09T09:00:00Z,27.8260,-97.0510,14.9,11.8,360.0,13.9,'1111122,1111122,1111122' 
NDBC,ioos:station:NOAA.NDBC:PTAT2:1,2014-03-09T10:00:00Z,27.8260,-97.0510,14.9,9.8,360.0,13.4,'1111122,1111122,1111122' 
NDBC,ioos:station:NOAA.NDBC:PTAT2:1,2014-03-09T11:00:00Z,27.8260,-97.0510,14.9,9.3,360.0,10.8,'1111122,1111122,1111122' 
NDBC,ioos:station:NOAA.NDBC:PTAT2:1,2014-03-09T12:00:00Z,27.8260,-97.0510,14.9,12.4,20.0,13.4,'1111122,1111122,1111122' 
NDBC,ioos:station:NOAA.NDBC:PTAT2:1,2014-03-09T13:00:00Z,27.8260,-97.0510,14.9,8.2,360.0,9.3,'1111122,1111122,1111122' 
NDBC,ioos:station:NOAA.NDBC:PTAT2:1,2014-03-09T14:00:00Z,27.8260,-97.0510,14.9,8.2,340.0,10.3,'1111122,1111122,1111122' 
NDBC,ioos:station:NOAA.NDBC:PTAT2:1,2014-03-09T15:00:00Z,27.8260,-97.0510,14.9,7.7,350.0,8.8,'1111122,1111122,1111122' 
NDBC,ioos:station:NOAA.NDBC:PTAT2:1,2014-03-09T16:00:00Z,27.8260,-97.0510,14.9,8.8,340.0,10.8,'1111122,1111122,1111122' 
NDBC,ioos:station:NOAA.NDBC:PTAT2:1,2014-03-09T17:00:00Z,27.8260,-97.0510,14.9,8.2,340.0,10.3,'1111122,1111122,1111122' 
NDBC,ioos:station:NOAA.NDBC:PTAT2:1,2014-03-09T18:00:00Z,27.8260,-97.0510,14.9,7.7,350.0,9.3,'1111122,1111122,1111122' 
NDBC,ioos:station:NOAA.NDBC:PTAT2:1,2014-03-09T19:00:00Z,27.8260,-97.0510,14.9,8.2,350.0,9.8,'1111122,1111122,1111122' 
NDBC,ioos:station:NOAA.NDBC:PTAT2:1,2014-03-09T20:00:00Z,27.8260,-97.0510,14.9,8.2,360.0,9.8,'1111122,1111122,1111122' 
NDBC,ioos:station:NOAA.NDBC:PTAT2:1,2014-03-09T21:00:00Z,27.8260,-97.0510,14.9,8.8,360.0,9.8,'1111122,1111122,1111122' 
NDBC,ioos:station:NOAA.NDBC:PTAT2:1,2014-03-09T22:00:00Z,27.8260,-97.0510,14.9,5.7,350.0,7.2,'1111122,1111122,1111122' 
NDBC,ioos:station:NOAA.NDBC:PTAT2:1,2014-03-09T23:00:00Z,27.8260,-97.0510,14.9,7.7,360.0,8.8,'1111122,1111122,1111122' 
NDBC,ioos:station:NOAA.NDBC:PTAT2:1,2014-03-10T00:00:00Z,27.8260,-97.0510,14.9,7.2,360.0,8.2,'1111122,1111122,1111122' 
NDBC,ioos:station:NOAA.NDBC:PTAT2:1,2014-03-10T01:00:00Z,27.8260,-97.0510,14.9,5.7,360.0,7.2,'1111122,1111122,1111122' 
NDBC,ioos:station:NOAA.NDBC:PTAT2:1,2014-03-10T02:00:00Z,27.8260,-97.0510,14.9,5.1,360.0,5.7,'1111122,1111122,1111122' 
NDBC,ioos:station:NOAA.NDBC:PTAT2:1,2014-03-10T03:00:00Z,27.8260,-97.0510,14.9,4.1,360.0,5.1,'1111122,1111122,1111122' 
NDBC,ioos:station:NOAA.NDBC:PTAT2:1,2014-03-10T04:00:00Z,27.8260,-97.0510,14.9,3.6,330.0,4.1,'1111122,1111122,1111122' 
NDBC,ioos:station:NOAA.NDBC:PTAT2:1,2014-03-10T05:00:00Z,27.8260,-97.0510,14.9,3.1,340.0,4.1,'1111122,1111122,1111122' 
NDBC,ioos:station:NOAA.NDBC:PTAT2:1,2014-03-10T06:00:00Z,27.8260,-97.0510,14.9,6.2,10.0,6.7,'1111122,1111122,1111122' 
NDBC,ioos:station:NOAA.NDBC:PTAT2:1,2014-03-10T07:00:00Z,27.8260,-97.0510,14.9,3.1,50.0,3.6,'1111122,1111122,1111122' 
NDBC,ioos:station:NOAA.NDBC:PTAT2:1,2014-03-10T08:00:00Z,27.8260,-97.0510,14.9,4.1,10.0,4.6,'1111122,1111122,1111122' 
NDBC,ioos:station:NOAA.NDBC:PTAT2:1,2014-03-10T09:00:00Z,27.8260,-97.0510,14.9,5.7,330.0,7.2,'1111122,1111122,1111122' 
NDBC,ioos:station:NOAA.NDBC:PTAT2:1,2014-03-10T10:00:00Z,27.8260,-97.0510,14.9,2.1,240.0,2.1,'1111122,1111122,1111122' 
NDBC,ioos:station:NOAA.NDBC:PTAT2:1,2014-03-10T11:00:00Z,27.8260,-97.0510,14.9,3.6,310.0,4.6,'1111122,1111122,1111122' 
NDBC,ioos:station:NOAA.NDBC:PTAT2:1,2014-03-10T12:00:00Z,27.8260,-97.0510,14.9,4.6,330.0,5.1,'1111122,1111122,1111122' 
NDBC,ioos:station:NOAA.NDBC:PTAT2:1,2014-03-10T13:00:00Z,27.8260,-97.0510,14.9,4.6,350.0,5.1,'1111122,1111122,1111122' 
NDBC,ioos:station:NOAA.NDBC:PTAT2:1,2014-03-10T14:00:00Z,27.8260,-97.0510,14.9,5.1,360.0,6.2,'1111122,1111122,1111122' 
NDBC,ioos:station:NOAA.NDBC:PTAT2:1,2014-03-10T15:00:00Z,27.8260,-97.0510,14.9,5.7,360.0,6.2,'1111122,1111122,1111122' 
NDBC,ioos:station:NOAA.NDBC:PTAT2:1,2014-03-10T16:00:00Z,27.8260,-97.0510,14.9,6.2,20.0,6.2,'1111122,1111122,1111122' 
NDBC,ioos:station:NOAA.NDBC:PTAT2:1,2014-03-10T17:00:00Z,27.8260,-97.0510,14.9,4.6,20.0,5.1,'1111122,1111122,1111122' 
NDBC,ioos:station:NOAA.NDBC:PTAT2:1,2014-03-10T18:00:00Z,27.8260,-97.0510,14.9,4.6,350.0,5.1,'1111122,1111122,1111122' 